Regional Weather Roundup
Issued by NWS

Home | Current Version | Previous Version | Graphics & Text | Print | Product List | Glossary On
Versions: 1 2 3 4 5 6 7 8 9 10 11 12 13 14 15 16 17 18 19 20 21 22 23 24 25 26 27 28 29 30 31 32 33 34 35 36 37 38 39 40 41 42 43 44 45 46 47 48 49 50
822
ASUS43 KMKX 280421
RWRWI

WISCONSIN REGIONAL WEATHER ROUNDUP
NATIONAL WEATHER SERVICE MILWAUKEE/SULLIVAN WI
1100 PM CDT TUE JUN 27 2017

NOTE: "FAIR" INDICATES FEW OR NO CLOUDS BELOW 12,000 FEET WITH NO
SIGNIFICANT WEATHER AND/OR OBSTRUCTIONS TO VISIBILITY.

WIZ001-002-006>008-014>016-023>028-280500-
NORTHWEST WISCONSIN

CITY           SKY/WX    TMP DP  RH WIND       PRES   REMARKS
SUPERIOR ARPT  NOT AVBL
ASHLAND        CLEAR     60  48  64 S6        29.86F
HAYWARD        CLEAR     61  47  59 S8        29.88S
SIREN          CLEAR     62  47  58 CALM      29.86S
CUMBERLAND     PTCLDY    57  45  62 S8        29.87S
RICE LAKE      PTCLDY    61  47  60 SE7       29.89S
CHETEK         PTCLDY    60  48  64 SE10G16   29.88F
LADYSMITH      CLEAR     61  48  62 SE6       29.93S
EAU CLAIRE     CLEAR     63  48  58 SE10      29.88F
MENOMONIE      CLEAR     60  49  68 E7        29.88S
NEW RICHMOND   CLOUDY    63  44  49 SE7       29.85F
OSCEOLA        CLOUDY    65  45  47 SE6       29.86F
$$

WIZ003>005-009-010-017-018-280500-
NORTH CENTRAL WISCONSIN

CITY           SKY/WX    TMP DP  RH WIND       PRES   REMARKS
MANITOWISH WTR PTCLDY    56  50  79 S5        29.92F
ARBOR VITAE    CLEAR     57  49  75 S5        29.93S
WOODRUFF       CLEAR     57  49  75 S5        29.93S
RHINELANDER    CLEAR     54  49  83 CALM      29.96R
EAGLE RIVER    CLEAR     57  46  65 CALM      29.94S
LAND O LAKES   CLEAR     57  47  69 S3        29.95S
PHILLIPS       CLOUDY    57  49  72 S8        29.92F
TOMAHAWK       NOT AVBL
MEDFORD        CLEAR     56  48  76 S6        29.94F
MERRILL        CLEAR     60  50  70 CALM      29.96R
$$

WIZ029-030-035-036-043>047-280500-
CENTRAL WISCONSIN

CITY           SKY/WX    TMP DP  RH WIND       PRES   REMARKS
WAUSAU           N/A    N/A N/A N/A MISG      29.95R
MOSINEE        CLEAR     55  50  82 S5        29.98S
MARSHFIELD     CLEAR     56  47  71 S5        29.95S
STEVENS POINT  CLEAR     55  49  80 CALM      29.98R
WAUPACA        CLEAR     58  53  82 CALM      29.98R
WAUTOMA        CLEAR     55  52  89 CALM      29.99
WISC RAPIDS    CLEAR     57  50  77 S3        29.98R
CAMP DOUGLAS   PTCLDY    52  48  87 SE5       29.96R
$$

WIZ011>013-019>022-031-037>040-048>050-280500-
NORTHEAST WISCONSIN

CITY           SKY/WX    TMP DP  RH WIND       PRES   REMARKS
ANTIGO         CLEAR     54  49  81 S7        29.97S
SHAWANO        CLEAR     63  50  63 CALM      29.96S
OCONTO         CLEAR     61  49  65 SW3       29.95S
STURGEON BAY     N/A     61  51  70 S7        29.97R
GREEN BAY      CLEAR     62  54  74 SW5       29.98R
MANITOWOC      CLEAR     59  51  75 S6        29.99S
APPLETON       PTCLDY    61  45  55 VRB6      29.97R
CLINTONVILLE   CLEAR     55  48  76 CALM      29.97S
OSHKOSH        PTCLDY    59  50  72 S6        29.98R
$$

WIZ032>034-041-042-053>061-280500-
SOUTHWEST WISCONSIN

CITY           SKY/WX    TMP DP  RH WIND       PRES   REMARKS
LA CROSSE      CLEAR     66  50  56 SE7       29.93S
SPARTA         CLEAR     53  50  90 CALM      29.96F
VIROQUA        CLEAR     61  48  64 S6        29.97S
BOSCOBEL       CLEAR     57  52  83 CALM      29.97R
PRAIRIE DU CHI CLEAR     61  47  59 E5        29.96R
PLATTEVILLE    CLEAR     59  50  71 SE8       29.99S
$$

WIZ056-057-062-063-064-067-068-280500-
SOUTH CENTRAL WISCONSIN

CITY           SKY/WX    TMP DP  RH WIND       PRES   REMARKS
REEDSBURG      CLEAR     58  49  70 CALM      29.98R
BARABOO/DELLS  CLEAR     58  47  67 S5        29.98S
LONE ROCK      CLEAR     58  50  75 CALM      29.98R
MINERAL POINT  CLEAR     59  50  72 S6        29.98F
MADISON        CLEAR     64  49  57 S7        29.99R
MIDDLETON      CLEAR     56  50  81 CALM      30.00S
WATERTOWN      NOT AVBL
MONROE         CLEAR     61  46  59 S7        30.00S
JANESVILLE     CLEAR     63  46  55 S5        30.00S
$$

WIZ051-052-058>065-066-070>072-280500-
SOUTHEAST WISCONSIN

CITY           SKY/WX    TMP DP  RH WIND       PRES   REMARKS
MILWAUKEE      PTCLDY    65  49  56 S9        30.01S
WAUKESHA       PTCLDY    59  46  63 S5        30.03R
MILWAUKEE/TIMM PTCLDY    63  45  51 S8        30.02S
RACINE         PTCLDY    64  48  56 S9        30.04R
KENOSHA        PTCLDY    61  50  67 S6        30.02S
FOND DU LAC    PTCLDY    61  48  62 S6        29.99R
SHEBOYGAN      CLEAR     57  52  83 S5        30.00R
WEST BEND      PTCLDY    54  50  87 CALM      30.01R
JUNEAU         PTCLDY    60  48  64 S3        30.01S
$$

LSZ147-162-280500-
LAKE SUPERIOR

STATION/POSITION TIME  TEMP    WIND        PRES    WAVE
                       AIR SEA DIR/SP/G            HT/PER
                 (UTC) (F)     (DEG/KT/KT) (MB)    (FT/S)
W MID LAKE BUOY  0350   47 39  200/ 10/ 12 1010.5F   0
DEVILS ISLAND    0400   67     190/ 11/ 15 1010.0F
SAXON HARBOR     0340   60     200/  3/  6 1011.2S
$$

LMZ867-665-643>646-280500-
LAKE MICHIGAN

STATION/POSITION TIME  TEMP    WIND        PRES    WAVE
                       AIR SEA DIR/SP/G            HT/PER
                 (UTC) (F)     (DEG/KT/KT) (MB)    (FT/S)
CHAMBERS ISLAND  0340   64     170/  2/  6 1013.9R
S GREEN BAY BUOY 0400   67     200/ 12/ 16 1014.1R
N MID LAKE BUOY  0350   57 54  190/ 14/ 16 1014.8S   2/ 4
NORTHPORT PIER   0340   61     190/  3/  7 1013.9S
KEWAUNEE LAKESHO 0354   54     180/  6/  7 1014.7R
SHEBOYGAN LAKESH 0400   62     190/ 13/ 14 1015.5S
PORT WASHINGTON  0330   56     190/  6/  8 1016.9R
ATWATER BUOY     0309   61 57  170/  8/ 10 1016.1R
MILWAUKEE LAKESH 0400   64     200/ 10/ 11   N/A
S MID LAKE BUOY  0350   64 61  160/ 10/ 12 1016.9R   1/ 3
KENOSHA   LAKESH 0400   63     180/ 11/ 14 1016.6
$$

TC  - TEMPERATURE IN CELSIUS
VSB - VISIBILITY IN STATUTE MILES
WCI - WIND CHILL INDEX
HX  - HEAT INDEX





USA.gov is the U.S. government's official web portal to all federal, state and local government web resources and services.